Regional Weather Roundup
Issued by NWS Upton, NY

Current Version | Previous Version | Text Only | Print | Product List | Glossary On
Versions: 1 2 3 4 5 6 7 8 9 10 11 12 13 14 15 16 17 18 19 20 21 22 23 24 25 26 27 28 29 30 31 32 33 34 35 36 37 38 39 40 41 42 43 44 45 46 47 48 49 50
000
ASUS41 KOKX 011005
RWROKX

REGIONAL WEATHER ROUNDUP
NATIONAL WEATHER SERVICE NEW YORK NY
500 AM EST SUN FEB 01 2015

NOTE: "FAIR" INDICATES FEW OR NO CLOUDS BELOW 12,000 FEET WITH NO
SIGNIFICANT WEATHER AND/OR OBSTRUCTIONS TO VISIBILITY.

NYZ071-072-176-178-NJZ106-104-011100-
NEW YORK CITY METRO AREA


CITY           SKY/WX    TMP DP  RH WIND       PRES   REMARKS
CENTRAL PARK   PTCLDY    24   8  50 MISG      30.21S
LAGUARDIA APRT MOCLDY    25  10  53 SW10      30.20S WCI  15
KENNEDY INTL   MOCLDY    24  10  55 W12       30.22R WCI  13
NEWARK/LIBERTY PTCLDY    17   8  67 SW5       30.21S WCI  10
BRNX BOT. GARD   N/A    N/A N/A N/A SW7       30.22R
TETERBORO      CLEAR     20   6  55 CALM      30.20S
$$

NYZ177-179-078>081-011100-
LONG ISLAND NEW YORK

CITY           SKY/WX    TMP DP  RH WIND       PRES   REMARKS
FARMINGDALE    CLEAR     18   8  65 SW3       30.20R
ISLIP          CLEAR      8   1  73 CALM      30.18R
SHIRLEY        CLEAR     10   1  67 W5        30.20R WCI   2
WESTHAMPTON    CLEAR      1  -8  66 CALM      30.20R
MONTAUK POINT    N/A     24  13  62 W13       30.17R WCI  12
$$

NYZ052-065-067-011100-
HUDSON VALLEY

CITY           SKY/WX    TMP DP  RH WIND       PRES   REMARKS
WHITE PLAINS   CLEAR     18   5  57 VRB6      30.14S WCI  10
NEWBURGH       NOT AVBL
MONTGOMERY     CLOUDY    17   7  64 SW8       30.14S WCI   7
POUGHKEEPSIE   MOCLDY    19   7  59 CALM      30.15S
ALBANY         FLURRIES  15   6  67 CALM      30.13S
$$

NJZ001-105-106-008-010-013-015-019>022-104-011100-
NEW JERSEY

CITY           SKY/WX    TMP DP  RH WIND       PRES   REMARKS
NEWARK/LIBERTY PTCLDY    17   8  67 SW5       30.21S WCI  10
TETERBORO      CLEAR     20   6  55 CALM      30.20S
CALDWELL       CLEAR     17   5  59 CALM      30.20S
MORRISTOWN     PTCLDY    14   7  73 CALM      30.20S
SOMERVILLE     CLOUDY    11   6  81 CALM      30.21R
SUSSEX         CLOUDY    12   4  70 CALM      30.16S
ANDOVER          N/A     16   7  67 S3        30.17R
TRENTON        CLOUDY    23  11  60 W7        30.23R WCI  15
MILLVILLE      CLEAR     14   9  80 CALM      30.26S
ATLANTIC CITY  CLEAR     21   9  59 CALM      30.26R
WRIGHTSTOWN    CLOUDY    23  12  64 W7        30.22R WCI  14
TOMS RIVER     CLOUDY    16  10  79 CALM      30.23R
BELMAR         CLOUDY    18   5  57 W6        30.22R WCI   9
$$

PAZ047>061-062-071-011100-
EASTERN PENNSYLVANIA

CITY           SKY/WX    TMP DP  RH WIND       PRES   REMARKS
PHILADELPHIA   CLOUDY    24  14  65 SW3       30.26S
ALLENTOWN      CLOUDY    25  13  60 SW9       30.20R WCI  15
SCRANTON       CLOUDY    21  11  65 S6        30.15R WCI  13
$$

CTZ002-004>006-009-010-012-RIZ004-006-007-MAZ004-011-015-011100-
SOUTHERN NEW ENGLAND
 IN CT

CITY           SKY/WX    TMP DP  RH WIND       PRES   REMARKS
BRADLEY INTL   MOCLDY    16   5  62 SW7       30.14R WCI   6
HARTFORD       MOCLDY    13   4  67 S5        30.17S WCI   5
DANBURY        PTCLDY     0  -6  76 CALM      30.15R
WTRBRY/OXFORD  MOCLDY    10  -4  52 CALM      30.11S
BRIDGEPORT     PTCLDY    12   4  70 CALM      30.18S
MERIDEN        PTCLDY     2  -3  80 CALM      30.18R
NEW HAVEN      PTCLDY     8   0  69 CALM      30.18R
CHESTER        FAIR      14   5  67 W3        30.15R
GROTON         PTCLDY    13   5  70 NW9       30.17R WCI   1
WILLIMANTIC    CLOUDY     3  -2  79 CALM      30.15R

 IN RI

CITY           SKY/WX    TMP DP  RH WIND       PRES   REMARKS
PROVIDENCE     CLEAR     13   3  64 W8        30.14R WCI   2
BLOCK ISLAND   CLEAR     21  10  63 W16G23    30.13R WCI   7
WESTERLY       PTCLDY    13   4  67 W5        30.17R WCI   5

 IN MA

CITY           SKY/WX    TMP DP  RH WIND       PRES   REMARKS
BOSTON         PTCLDY    14   0  53 W14       30.12R WCI  -1
WORCESTER      PTCLDY   N/A N/A N/A SW10      30.04R
WESTFIELD      CLOUDY    14   6  70 S7        30.11R WCI   4
PROVINCETOWN   CLEAR     21  10  63 NW24G35   30.06R WCI   4
NANTUCKET      CLEAR     21   7  54 NW29G37   30.06R WCI   3
$$

ANZ330-335-338-340-345-350-353-355-011100-
COASTAL MARINE OBSERVATIONS


STATION/POSITION TIME  SKY/WX   TEMP    WIND        PRES    VSBY  WAVE
                                AIR SEA DIR/SP/G                  HT/PER
                 (UTC)          (F)     (DEG/KT/KT) (MB)    (MI)  (FT/S)
NY HARB ENTRANCE 1000            28 39  270/ 17/ 19 1022.7          2/12
4S FIRE IS       NOT AVBL
20S FIRE ISLAND  0900               41              1022.9          4/ 5
23SW MTP         1000                                 N/A           4/ 5
HUDSON CANYON    NOT AVBL
EXECUTION ROCKS  1000            24 32  250/ 12/ 14   N/A
WESTERN LI SOUND 1000            24     260/ 16/ 19   N/A           2/ 3
CENTRAL LI SOUND 0900            23 34  280/ 12/ 14   N/A           2/ 4
EASTERN LI SOUND NOT AVBL
ROBBINS REEF     1000            22     260/  6/  9 1021.7
$$


>>>>>>>>>>>>>>>>>>>>>>>>>>>> KEY <<<<<<<<<<<<<<<<<<<<<<<<<<<
>                                                          <
>     SKY/WX - SKY CONDITION/PRESENT WEATHER               <
>     TMP    - TEMPERATURE IN FAHRENHEIT                   <
>     DP     - DEWPOINT IN FAHRENHEIT                      <
>     RH     - RELATIVE HUMIDITY IN PERCENT                <
>     WIND   - DIRECTION AND SPEED IN MPH                  <
>     PRES   - MEAN SEA LEVEL PRESSURE IN INCHES OF HG     <
>     WCI    - WIND CHILL INDEX                            <
>     VSB    - VISIBILITY IN MILES                         <
>     HX     - HEAT INDEX                                  <
>     TC     - TEMPERATURE IN CELSIUS                      <
>     VRB    - VARIABLE WIND DIRECTION                     <
>                                                          <
>>>>>>>>>>>>>>>>>>>>>>>>>>>> KEY <<<<<<<<<<<<<<<<<<<<<<<<<<<





USA.gov is the U.S. government's official web portal to all federal, state and local government web resources and services.